Location: Melbourne
(37.8170°S, 144.9670°E)
Time: 00:11:51
(UTC+10:00)

Aureole 2 Rocket - Visible Passes

Search period start: 29 June 2017 00:00
Search period end: 09 July 2017 00:00
Orbit: 327 x 569 km, 73.9° (Epoch: 27 June)

Date Brightness Start Highest point End Pass type
(mag) Time Alt. Az. Time Alt. Az. Time Alt. Az.
01 Jul 3.9 06:36:15 10° S 06:39:04 32° ESE 06:42:02 10° NE visible
02 Jul 5.0 06:00:23 10° SSE 06:02:24 16° ESE 06:04:28 10° ENE visible
03 Jul 2.7 06:58:01 10° SSW 07:01:00 42° WNW 07:04:10 10° N visible
04 Jul 2.3 06:21:47 14° SSW 06:24:26 78° ESE 06:27:47 10° NNE visible
05 Jul 3.9 05:46:21 22° SSE 05:47:48 32° ESE 05:50:52 10° NE visible
06 Jul 5.1 05:10:59 16° ESE 05:11:06 16° ESE 05:13:17 10° ENE visible
06 Jul 3.7 06:44:37 15° WSW 06:46:14 21° WNW 06:48:51 10° NNW visible
07 Jul 2.6 06:09:18 43° W 06:09:41 45° WNW 06:13:00 10° N visible
08 Jul 3.3 05:34:03 43° NNE 05:34:03 43° NNE 05:36:34 10° NNE visible
08 Jul 4.2 19:06:54 10° NNW 19:07:49 19° N 19:07:49 19° N visible
